GFSNGP_925_temp_000.txt.gz
Temp
18 19 18 18 18 20 20 20 18 19 21 22 23 22 21 19 19 18 18 17 15 14 15 14 13 12 13 12 13 11 10 9 9 7 6 5 6 5 5 5 4 4 4 3
14 16 18 17 17 18 19 20 20 20 20 22 22 21 19 18 18 17 15 14 13 14 13 12 12 12 11 11 12 11 9 7 5 5 6 6 5 5 5 4 4 4 3 3
14 15 13 13 15 18 19 20 20 18 19 21 20 19 17 17 17 14 13 13 13 12 11 12 11 9 9 9 8 7 5 4 4 4 6 6 5 5 4 4 4 3 2 2
12 10 13 18 20 20 19 20 20 20 20 20 19 17 16 16 13 13 11 12 12 11 12 11 9 7 7 6 7 5 4 4 5 6 6 5 5 4 4 3 2 2 2 1
12 14 15 16 18 18 17 17 19 19 17 17 17 15 13 15 13 11 11 12 11 12 10 8 7 5 5 5 4 4 6 7 7 6 5 4 4 3 3 2 1 1 1 -0
13 13 13 17 18 20 19 15 16 15 15 14 13 11 11 13 12 12 11 11 12 10 8 7 6 5 6 7 7 8 7 6 5 5 4 4 3 2 2 1 1 0 -1 -2
12 12 14 17 19 18 14 13 13 13 13 13 12 11 12 13 13 12 12 12 10 8 6 6 7 7 8 8 8 6 5 5 4 4 4 3 2 1 1 1 -0 -1 -2 -3
10 12 13 19 18 12 15 15 14 13 12 12 13 13 13 13 12 12 12 10 8 7 7 7 7 6 8 7 5 4 4 4 3 3 2 2 1 0 0 -0 -0 -2 -3 -4
15 15 17 18 17 17 15 14 13 13 14 13 13 13 13 12 12 11 8 7 6 7 6 6 6 7 7 4 4 3 3 3 2 2 1 1 -0 -0 -0 -1 -2 -3 -4 -4
13 15 16 16 16 16 15 14 13 13 13 12 13 13 13 13 11 9 6 5 5 6 6 7 6 5 4 3 2 2 2 1 1 0 0 -0 -1 -1 -1 -2 -3 -5 -5 -5
12 14 15 15 15 15 14 14 12 12 11 13 13 13 13 11 10 6 4 5 5 6 6 6 4 3 3 1 1 1 -0 -0 0 -1 -1 -1 -1 -1 -2 -3 -4 -5 -5 -6
11 14 13 14 15 15 14 12 12 13 13 13 12 11 10 8 6 5 4 5 6 6 7 6 4 3 2 1 -0 -2 -2 -1 -2 -2 -2 -2 -2 -2 -3 -4 -4 -4 -5 -6
14 16 16 16 15 14 12 11 14 13 13 11 9 7 7 6 5 5 6 5 5 6 6 4 3 2 2 0 -1 -3 -4 -4 -3 -3 -2 -3 -3 -4 -4 -4 -5 -5 -5 -6
16 15 12 13 13 13 14 14 13 12 10 10 8 6 6 6 5 5 5 6 5 5 5 3 2 2 1 -0 -1 -2 -3 -3 -2 -4 -4 -4 -4 -4 -4 -5 -5 -5 -5 -6
14 14 14 13 13 13 13 13 12 10 8 7 7 5 5 5 5 5 5 3 3 4 4 2 1 1 -0 -1 -2 -2 -2 -2 -3 -4 -4 -4 -3 -4 -4 -5 -5 -5 -6 -7
13 13 13 12 12 12 12 11 10 8 5 6 4 4 4 5 4 4 4 2 1 0 1 0 0 -0 -0 -1 -2 -2 -1 -1 -3 -3 -4 -4 -4 -4 -4 -5 -6 -6 -7 -8
10 10 10 10 11 11 11 10 8 5 4 4 3 2 1 1 1 2 1 0 -0 -0 -0 -1 -1 -1 -1 -2 -2 -2 -2 -3 -3 -3 -4 -4 -5 -5 -5 -6 -6 -7 -7 -8
12 12 11 11 10 9 7 6 4 3 3 1 1 1 0 0 -0 -0 -1 -1 -1 -1 -0 -1 -1 -2 -2 -3 -3 -4 -3 -4 -4 -4 -4 -5 -5 -5 -6 -6 -7 -7 -8 -8
11 11 10 10 9 6 6 5 4 3 1 1 -0 -0 -0 -0 -1 -1 -1 -2 -2 -1 -1 -2 -3 -3 -4 -3 -4 -4 -4 -4 -5 -5 -5 -5 -6 -6 -6 -7 -7 -8 -8 -9
8 8 8 8 6 2 1 1 0 1 1 0 -0 -1 -1 -1 -2 -2 -2 -2 -1 -2 -2 -3 -3 -4 -3 -3 -4 -4 -4 -5 -5 -5 -6 -6 -6 -6 -7 -7 -8 -8 -9 -9
4 5 5 4 3 1 1 0 0 0 1 -0 -1 -1 -2 -2 -2 -2 -2 -2 -2 -2 -3 -3 -3 -3 -3 -4 -4 -4 -5 -5 -6 -6 -6 -6 -6 -7 -7 -7 -8 -9 -9 -10
5 4 2 1 0 0 1 0 -1 -0 -0 -1 -1 -2 -2 -1 -0 -1 -1 -2 -2 -3 -3 -4 -3 -3 -3 -4 -4 -5 -5 -5 -6 -6 -6 -7 -7 -7 -8 -8 -8 -9 -10 -10
4 4 3 2 1 1 1 -0 -1 -1 -1 -1 -2 -2 -2 -1 -1 -1 -1 -2 -3 -3 -4 -3 -3 -3 -4 -5 -5 -5 -5 -6 -6 -6 -7 -7 -8 -8 -8 -9 -9 -10 -10 -10
4 4 3 2 1 1 -0 -1 -0 -1 -1 -2 -2 -2 -2 -1 -1 -1 -2 -3 -3 -3 -3 -3 -4 -5 -6 -5 -5 -5 -5 -6 -6 -6 -7 -7 -8 -8 -8 -9 -9 -10 -10 -11
4 2 2 1 0 0 -0 0 0 -1 -2 -2 -1 -1 -2 -2 -3 -2 -3 -3 -3 -3 -3 -3 -4 -5 -6 -5 -5 -5 -5 -6 -6 -7 -7 -7 -8 -8 -9 -9 -10 -10 -11 -11
3 2 1 1 1 -0 1 2 1 1 1 1 -0 -2 -2 -3 -3 -3 -3 -3 -3 -3 -3 -4 -4 -4 -5 -5 -5 -5 -6 -6 -7 -8 -8 -8 -8 -9 -9 -9 -10 -10 -11 -12
2 1 -0 -0 -0 -0 1 1 1 1 0 -2 -2 -3 -2 -3 -3 -3 -3 -3 -3 -3 -3 -4 -4 -4 -4 -5 -5 -6 -6 -7 -7 -7 -8 -8 -8 -8 -9 -10 -10 -11 -11 -12

GFSNGP_925_temp_003.txt.gz
Temp
15 16 17 17 16 16 16 15 14 16 16 18 18 17 16 15 15 15 13 12 12 12 11 11 11 11 10 9 9 10 10 8 6 6 6 6 5 5 5 5 5 5 4 4
13 15 15 14 14 15 15 15 16 16 16 18 17 15 15 14 14 13 12 12 12 11 11 11 11 10 9 8 8 8 7 5 5 4 4 4 4 5 5 5 5 4 4 3
14 13 12 11 14 15 15 16 16 13 14 14 14 14 14 13 12 11 12 11 11 10 10 10 9 8 7 7 7 7 6 5 5 4 4 4 4 5 5 4 4 3 2 2
11 8 12 15 17 17 15 16 15 14 13 13 12 13 13 13 11 11 11 10 9 10 10 8 8 7 6 6 6 5 5 6 5 5 4 5 5 5 4 3 2 2 1 1
12 11 13 14 15 16 14 14 14 13 14 14 13 12 12 13 11 10 10 9 10 10 8 8 7 7 6 6 6 6 5 6 5 5 5 4 4 3 2 2 1 1 0 -0
8 9 12 12 16 16 16 13 12 13 11 11 10 10 11 11 11 10 11 11 10 9 8 7 7 7 7 7 7 4 5 5 4 4 4 3 3 2 1 1 0 0 -0 -2
5 10 11 13 16 16 11 13 11 11 11 11 10 10 11 11 10 11 11 8 7 7 7 7 7 7 7 5 4 4 4 4 4 3 2 2 1 1 0 -0 -0 -2 -3 -3
8 11 10 15 15 11 12 11 12 11 11 11 11 10 11 10 9 9 6 6 6 6 7 6 6 7 4 4 4 3 3 3 2 2 1 1 0 -0 -1 -1 -2 -3 -4 -5
10 10 12 14 14 13 14 13 11 10 11 10 9 9 10 9 8 6 5 5 6 6 5 5 6 5 5 3 2 2 2 1 1 0 0 -1 -1 -1 -1 -2 -4 -4 -5 -6
10 13 14 13 14 14 13 11 12 10 9 10 9 9 9 7 5 4 4 4 5 6 6 6 5 4 3 2 2 1 -0 -0 -1 -1 -1 -1 -2 -1 -3 -4 -4 -5 -5 -6
11 12 13 13 12 12 12 10 9 9 9 10 10 8 7 6 5 4 4 4 5 5 6 4 3 3 2 1 1 -0 -1 -2 -2 -2 -2 -2 -2 -3 -3 -4 -4 -5 -5 -6
10 13 12 12 11 11 11 9 9 9 10 9 7 7 6 6 5 5 4 4 4 5 4 3 3 2 2 1 0 -1 -2 -3 -3 -3 -3 -3 -3 -3 -4 -4 -5 -5 -5 -6
12 12 12 11 11 11 11 11 11 10 9 9 7 7 6 5 6 5 5 5 5 5 4 3 3 2 2 1 0 -1 -2 -3 -3 -3 -3 -4 -4 -4 -4 -5 -5 -5 -6 -7
13 12 11 9 9 11 11 12 12 11 9 8 8 7 6 5 6 5 5 5 5 4 4 3 3 2 1 0 -0 -1 -1 -2 -2 -3 -3 -4 -4 -4 -4 -5 -6 -6 -7 -8
12 11 10 10 10 11 11 11 9 8 7 6 6 6 5 5 4 4 5 4 4 3 2 2 2 2 1 0 -1 -1 -1 -1 -2 -3 -3 -4 -4 -4 -5 -6 -6 -7 -7 -8
11 10 10 9 9 9 9 9 8 7 5 5 5 4 3 3 3 3 2 2 2 2 2 1 1 0 -0 -0 -1 -1 -2 -3 -3 -3 -3 -4 -5 -5 -6 -6 -7 -7 -8 -9
7 7 7 8 8 8 8 6 5 4 3 2 3 2 1 1 2 1 1 1 1 0 -0 -1 -1 -2 -1 -1 -2 -2 -3 -3 -3 -4 -4 -5 -5 -6 -6 -7 -7 -8 -8 -9
9 8 9 8 8 6 4 3 4 3 2 3 2 1 0 -0 -2 -1 -1 -1 -1 -1 -2 -2 -2 -2 -2 -3 -3 -3 -3 -4 -4 -5 -5 -5 -6 -6 -6 -7 -8 -8 -9 -10
7 6 7 7 6 4 2 2 2 1 1 1 0 -0 -0 -1 -1 -1 -2 -2 -2 -2 -2 -3 -4 -4 -4 -3 -3 -4 -4 -4 -5 -5 -5 -6 -6 -6 -7 -7 -8 -9 -9 -10
5 6 5 4 4 3 1 1 -0 -1 -0 0 0 -1 -2 -2 -2 -2 -3 -2 -2 -2 -2 -3 -4 -3 -3 -3 -3 -4 -4 -5 -5 -6 -6 -6 -6 -7 -7 -8 -9 -9 -10 -10
3 3 2 2 1 -0 0 1 -0 -1 0 -1 -1 -1 -2 -1 -2 -2 -2 -2 -2 -3 -3 -4 -3 -3 -3 -3 -4 -4 -5 -5 -6 -6 -6 -7 -7 -7 -8 -8 -9 -9 -10 -11
3 2 2 3 2 1 0 0 1 -1 -2 -1 -1 -2 -2 -1 -1 -1 -1 -2 -3 -3 -4 -4 -3 -3 -4 -4 -4 -4 -5 -5 -6 -6 -7 -7 -7 -8 -8 -9 -9 -10 -10 -11
3 3 3 3 1 1 0 0 -0 -1 -1 -1 -1 -2 -2 -2 -1 -2 -3 -2 -3 -3 -4 -4 -4 -4 -5 -5 -5 -5 -5 -5 -6 -6 -7 -7 -8 -8 -9 -9 -9 -10 -10 -11
4 4 3 3 2 -0 -0 0 -0 -1 -0 -1 -2 -2 -2 -2 -1 -2 -2 -3 -3 -3 -3 -3 -4 -4 -6 -6 -5 -5 -5 -5 -6 -6 -7 -7 -8 -8 -9 -9 -10 -10 -11 -11
4 4 4 1 0 -0 0 0 -1 -1 -1 -2 -2 -1 -2 -2 -3 -3 -3 -3 -3 -3 -3 -3 -3 -4 -5 -5 -5 -5 -5 -6 -6 -6 -7 -7 -8 -8 -9 -9 -10 -11 -11 -11
3 3 2 2 1 1 -0 -0 -1 -0 -1 -2 -1 -1 -2 -3 -3 -3 -3 -3 -3 -3 -3 -3 -4 -4 -4 -4 -5 -5 -5 -6 -6 -7 -7 -8 -8 -8 -9 -9 -10 -10 -11 -11
3 3 1 0 2 2 -0 -0 -1 -0 -0 -1 -1 -2 -3 -3 -3 -4 -4 -3 -4 -4 -4 -4 -4 -4 -4 -4 -5 -5 -5 -6 -6 -7 -7 -8 -8 -8 -9 -9 -10 -10 -11 -12

GFSNGP_925_temp_009.txt.gz
Temp
13 13 13 14 14 14 13 12 12 13 13 14 13 12 12 12 11 11 12 11 10 10 10 10 10 10 9 8 8 7 6 5 5 4 4 4 3 3 3 3 4 4 3 3
12 12 12 12 13 12 13 12 12 12 12 13 12 11 11 11 11 11 10 10 10 10 10 9 9 9 8 8 6 6 5 4 4 3 2 2 2 2 2 1 1 2 2 2
10 9 9 10 11 12 13 13 13 11 12 12 11 11 10 11 10 10 10 10 9 9 8 8 8 7 7 6 6 5 5 4 4 3 3 3 2 2 2 2 2 1 1 -0
7 10 11 14 14 14 12 13 12 12 12 11 11 11 10 10 9 9 9 10 9 8 7 7 7 7 6 6 5 4 3 3 4 3 3 3 3 2 1 1 0 -0 -1 -1
9 10 10 13 14 14 14 12 13 12 12 12 12 9 8 9 9 9 9 9 8 7 7 7 6 5 4 4 4 4 3 3 3 3 3 2 1 1 0 -1 -1 -2 -2 -3
8 10 11 11 13 14 14 10 12 12 11 11 10 9 11 8 8 7 7 7 6 7 6 6 5 4 4 3 3 3 3 2 2 2 1 0 -0 -1 -1 -2 -2 -3 -3 -3
7 8 8 10 12 13 10 11 11 11 11 9 9 9 8 8 7 8 8 7 6 5 4 5 5 4 4 3 3 2 2 2 1 0 -0 -1 -1 -2 -2 -2 -3 -3 -4 -4
7 8 9 12 13 11 11 10 10 10 9 8 8 7 6 7 7 7 5 5 5 4 4 5 5 5 4 2 1 2 2 1 -0 -1 -1 -2 -2 -2 -3 -3 -4 -4 -5 -5
9 9 11 11 12 11 10 9 9 8 9 8 7 6 7 7 7 6 6 5 4 3 4 5 4 3 3 2 2 2 1 -0 -1 -2 -2 -3 -3 -3 -3 -4 -5 -5 -6 -6
10 12 12 11 12 13 11 10 9 8 7 5 4 6 7 7 5 5 5 4 3 3 3 2 3 3 3 2 1 1 0 -1 -2 -2 -3 -3 -3 -4 -4 -4 -5 -5 -6 -7
11 12 11 11 11 10 10 8 6 6 5 5 6 7 7 5 5 5 4 4 3 3 2 3 3 3 2 2 1 0 -0 -1 -2 -2 -3 -3 -3 -4 -4 -5 -5 -6 -6 -6
11 12 11 12 9 7 7 6 6 6 6 7 7 6 6 4 5 4 4 4 4 4 4 4 3 2 2 2 1 0 -0 -1 -2 -2 -3 -4 -4 -4 -4 -5 -5 -6 -7 -7
11 12 11 9 7 7 7 7 7 7 7 6 7 6 6 4 5 4 4 4 3 3 3 3 3 2 1 1 0 -0 -1 -2 -2 -2 -4 -4 -5 -5 -6 -5 -6 -6 -7 -8
11 10 9 7 6 7 8 8 8 8 8 7 6 6 5 4 4 3 2 2 2 2 2 1 1 0 0 0 -0 -1 -2 -2 -3 -4 -4 -5 -5 -6 -6 -7 -7 -7 -8 -9
8 8 7 7 7 7 7 7 6 5 5 5 5 4 3 2 1 1 2 1 1 1 -0 -1 -1 -1 -1 -2 -2 -2 -3 -4 -4 -4 -4 -5 -6 -6 -6 -7 -7 -8 -9 -9
6 7 7 7 6 6 6 5 4 3 2 2 2 1 1 1 1 1 0 -0 -0 -2 -3 -3 -3 -3 -3 -3 -3 -3 -4 -4 -4 -5 -5 -6 -6 -6 -7 -7 -8 -9 -9 -10
5 6 6 5 4 3 3 2 2 1 0 0 -0 -2 -0 -1 -0 0 -1 -1 -1 -3 -3 -3 -3 -4 -3 -3 -4 -4 -4 -4 -5 -5 -5 -6 -6 -7 -7 -8 -8 -9 -10 -10
5 5 5 5 4 3 1 2 1 0 -1 0 -1 -2 -2 -2 -3 -1 -3 -2 -3 -3 -2 -3 -4 -4 -3 -4 -4 -4 -4 -5 -5 -6 -6 -6 -7 -7 -8 -8 -9 -9 -10 -11
7 6 6 5 5 3 2 1 1 -1 -1 -0 -1 -2 -1 -2 -2 -4 -4 -3 -3 -4 -4 -4 -4 -4 -3 -3 -3 -4 -4 -5 -5 -6 -6 -7 -7 -7 -8 -8 -9 -10 -10 -11
4 5 4 4 4 3 2 2 -0 -1 -1 -2 -2 -2 -2 -2 -2 -3 -3 -3 -3 -3 -4 -4 -4 -4 -4 -4 -5 -5 -5 -5 -5 -6 -6 -7 -7 -8 -8 -9 -10 -10 -11 -11
2 3 3 2 2 3 2 2 0 -0 1 -1 -2 -2 -2 -2 -2 -3 -3 -3 -2 -3 -4 -4 -4 -4 -4 -5 -5 -5 -5 -5 -6 -6 -7 -7 -8 -8 -8 -9 -10 -10 -11 -11
2 1 1 2 1 0 2 2 1 1 -1 -1 -1 -2 -2 -2 -3 -3 -2 -3 -2 -3 -4 -4 -4 -4 -5 -5 -5 -5 -5 -5 -5 -6 -7 -7 -8 -8 -9 -9 -10 -10 -11 -11
1 2 1 1 0 0 1 0 -0 -0 -1 -2 -1 -2 -2 -2 -2 -3 -4 -2 -2 -3 -3 -4 -4 -4 -4 -5 -5 -5 -5 -5 -6 -6 -6 -7 -7 -8 -8 -9 -9 -10 -11 -11
1 1 1 1 1 -1 -2 1 2 1 0 -0 -1 -2 -2 -2 -3 -2 -2 -3 -3 -3 -4 -4 -4 -4 -4 -5 -5 -5 -5 -5 -6 -6 -6 -7 -7 -8 -8 -9 -10 -10 -11 -11
1 1 0 -0 -1 -1 -1 0 -0 -0 -0 -1 -2 -2 -2 -2 -2 -3 -3 -3 -3 -4 -4 -4 -4 -4 -4 -4 -5 -4 -5 -5 -6 -6 -7 -7 -8 -8 -8 -9 -10 -10 -11 -11
0 -0 -0 -1 -1 -1 -1 -1 -2 -1 -1 -2 -2 -2 -2 -2 -2 -3 -3 -4 -4 -4 -4 -5 -5 -5 -5 -5 -5 -5 -5 -5 -5 -6 -7 -7 -8 -8 -8 -9 -9 -10 -11 -11
-1 -1 -1 -0 -0 -0 -1 -1 -1 -1 -1 -2 -2 -1 -2 -2 -3 -4 -4 -4 -4 -4 -5 -5 -5 -5 -5 -5 -5 -5 -5 -5 -5 -6 -6 -7 -7 -8 -8 -9 -9 -10 -11 -11

GFSNGP_925_temp_012.txt.gz
Temp
12 12 12 13 12 12 11 12 12 14 12 13 13 11 11 11 10 11 11 10 9 8 9 9 9 8 8 8 7 6 5 5 4 3 2 2 2 2 3 3 1 1 1 1
10 10 10 10 11 11 11 11 11 12 11 12 12 11 10 11 11 10 9 8 8 8 8 8 8 7 7 6 6 5 4 4 4 3 3 2 2 2 2 2 2 1 1 0
9 9 8 9 12 12 12 12 12 12 13 12 12 10 11 11 9 9 8 8 8 8 9 8 7 6 6 5 5 4 3 2 3 3 3 3 3 3 2 1 1 0 -0 -1
7 10 9 14 13 13 12 12 12 11 11 11 11 10 9 9 8 7 6 7 8 8 7 6 6 5 4 4 3 2 2 2 2 3 2 2 1 1 0 0 -0 -1 -2 -2
10 11 10 13 14 14 13 11 13 12 12 11 11 9 9 7 7 7 6 6 7 6 6 5 5 4 4 4 3 3 3 3 2 2 1 1 0 -0 -1 -1 -2 -2 -3 -4
8 9 10 11 13 13 12 10 12 12 12 11 9 9 10 7 6 7 8 7 6 6 5 5 5 4 4 3 3 2 2 1 1 1 0 -1 -1 -2 -2 -3 -3 -4 -4 -4
8 9 9 10 11 12 11 12 12 12 10 9 8 7 6 6 7 8 8 7 6 5 4 4 5 5 4 3 2 2 2 1 0 -0 -1 -2 -2 -2 -3 -3 -4 -4 -4 -5
6 8 9 11 11 12 12 11 10 9 8 8 7 6 6 6 7 7 6 6 6 4 4 4 4 3 2 1 2 2 0 0 -0 -1 -2 -2 -3 -3 -3 -4 -4 -5 -5 -5
10 9 10 11 12 11 10 9 8 8 7 6 5 5 6 5 6 7 6 6 5 3 3 4 3 3 1 3 1 0 0 0 -1 -1 -2 -3 -3 -3 -4 -4 -5 -5 -6 -7
10 11 10 11 12 11 9 8 7 6 5 6 6 6 5 5 6 5 6 5 4 3 3 3 4 3 3 2 1 1 0 -0 -1 -2 -2 -3 -3 -4 -4 -5 -5 -6 -7 -7
9 11 10 10 9 8 6 6 6 5 6 6 6 5 5 5 4 5 4 4 4 3 3 3 3 3 3 2 1 0 -0 -1 -2 -2 -3 -3 -4 -4 -5 -5 -5 -6 -7 -7
11 12 11 10 7 7 6 6 6 6 6 6 6 4 4 3 4 4 4 4 3 3 2 3 3 3 2 1 1 -0 -1 -1 -2 -2 -3 -4 -5 -5 -5 -5 -6 -6 -7 -7
11 11 10 7 6 6 6 6 7 6 6 5 5 5 4 3 3 3 3 2 2 2 1 1 1 1 0 0 0 -0 -1 -2 -3 -3 -4 -4 -5 -5 -7 -6 -6 -7 -7 -8
10 10 8 7 6 7 7 6 6 6 6 5 4 4 3 2 2 1 1 1 1 1 1 -0 -1 -1 -1 -1 -2 -2 -2 -3 -3 -4 -4 -5 -5 -6 -6 -7 -8 -8 -8 -9
7 6 5 7 7 6 6 5 4 3 3 2 2 2 1 0 -0 1 2 1 1 -0 -1 -2 -3 -3 -3 -3 -3 -3 -3 -4 -4 -4 -5 -5 -6 -6 -7 -7 -8 -8 -9 -9
5 6 6 5 5 4 4 3 2 1 1 1 1 0 -0 -1 -1 -1 -0 -0 -1 -2 -3 -4 -4 -4 -3 -3 -3 -3 -4 -4 -4 -5 -5 -6 -6 -7 -7 -7 -8 -9 -9 -10
5 5 5 4 4 3 3 2 1 1 0 -0 -0 -1 -2 -2 -2 -1 -1 -2 -2 -3 -3 -3 -4 -4 -4 -3 -4 -4 -4 -4 -5 -5 -6 -6 -7 -7 -7 -8 -9 -9 -10 -11
6 5 5 4 3 2 1 3 3 2 -0 -0 -2 -3 -2 -2 -3 -1 -1 -3 -3 -4 -3 -3 -4 -4 -4 -3 -4 -4 -4 -5 -5 -5 -6 -6 -7 -7 -8 -8 -9 -10 -10 -11
5 4 4 4 4 3 2 2 2 2 1 -1 -2 -2 -2 -2 -3 -3 -4 -4 -4 -4 -4 -4 -4 -4 -4 -4 -4 -4 -4 -5 -5 -5 -6 -7 -7 -7 -8 -9 -9 -10 -10 -11
3 3 3 3 3 3 1 2 1 0 1 -1 -0 -1 -2 -2 -2 -3 -3 -4 -3 -3 -3 -4 -4 -4 -4 -5 -5 -5 -5 -5 -5 -6 -6 -7 -7 -8 -8 -9 -9 -10 -10 -11
1 2 2 1 1 1 1 1 0 -1 0 -1 -2 -1 -1 -2 -2 -3 -4 -4 -2 -3 -3 -4 -4 -4 -5 -5 -5 -5 -5 -5 -5 -6 -6 -7 -7 -8 -8 -9 -9 -10 -10 -11
1 0 0 0 -0 -1 1 0 -0 -0 -1 -1 -1 -2 -2 -2 -3 -3 -3 -3 -2 -3 -3 -3 -4 -4 -5 -5 -5 -5 -5 -5 -5 -6 -6 -7 -7 -8 -8 -9 -9 -10 -10 -11
0 1 0 0 -1 -1 -1 -1 -0 -0 -1 -1 -1 -2 -1 -2 -2 -3 -4 -2 -2 -3 -3 -4 -4 -4 -5 -5 -5 -5 -5 -5 -5 -6 -6 -7 -7 -7 -8 -9 -9 -10 -10 -11
1 1 0 0 -1 -2 -3 -1 -1 -1 -1 -1 -2 -2 -2 -3 -2 -2 -3 -3 -3 -3 -3 -4 -4 -4 -4 -5 -5 -5 -5 -5 -5 -6 -6 -7 -7 -8 -8 -8 -9 -10 -10 -11
1 0 -1 -1 -1 -1 -1 -1 -2 -2 -1 -2 -1 -1 -2 -2 -2 -2 -2 -3 -4 -4 -4 -4 -4 -4 -5 -5 -5 -5 -5 -5 -5 -5 -6 -7 -7 -8 -8 -8 -9 -9 -10 -11
-0 -1 -1 -1 -2 -1 -1 -2 -2 -1 -1 -1 -1 -1 -2 -2 -2 -3 -2 -3 -4 -4 -4 -4 -5 -5 -5 -5 -5 -6 -5 -5 -5 -5 -6 -6 -7 -7 -8 -8 -9 -9 -10 -11
-1 -3 -3 -2 -2 -1 -1 -1 -1 -1 -1 -1 -1 -1 -2 -2 -2 -3 -3 -4 -4 -4 -4 -5 -5 -5 -5 -6 -6 -6 -6 -6 -6 -5 -5 -6 -6 -7 -7 -8 -9 -9 -10 -10

GFSNGP_925_temp_015.txt.gz
Temp
13 14 13 13 14 13 13 14 13 15 15 16 16 14 14 14 13 13 13 12 11 10 10 9 8 8 7 7 5 4 4 4 3 3 2 2 2 2 2 2 2 2 0 0
11 11 11 11 12 12 13 13 13 14 14 15 13 13 13 13 12 12 11 9 9 10 9 9 7 6 6 5 4 4 3 3 2 2 2 3 3 2 2 1 0 0 0 -1
12 10 10 12 13 12 14 13 14 13 15 13 13 13 13 13 12 9 8 8 8 9 8 7 6 5 5 4 4 3 3 3 2 2 2 2 1 1 0 -0 -1 -1 -2 -2
11 10 13 15 14 14 14 14 13 13 13 13 13 13 12 9 8 7 7 7 8 8 7 6 5 4 5 5 4 3 3 2 2 1 1 0 0 -0 -1 -1 -2 -2 -2 -3
10 12 12 14 14 14 13 14 14 13 13 13 14 12 11 7 7 6 6 7 8 7 6 5 4 4 4 3 3 2 2 2 1 0 0 -0 -1 -1 -2 -2 -2 -3 -3 -4
9 11 11 13 13 12 13 13 13 13 12 12 12 9 11 6 6 7 7 8 7 6 5 4 4 4 3 4 3 2 2 1 -0 -0 -1 -1 -2 -2 -3 -3 -3 -4 -4 -4
10 10 11 12 12 12 12 13 11 11 12 11 10 7 5 5 7 7 7 7 7 5 4 4 4 3 3 2 2 2 2 1 0 -0 -2 -2 -3 -3 -3 -3 -4 -5 -5 -5
8 9 10 11 12 13 13 11 11 11 10 9 7 6 6 7 7 7 7 7 6 5 4 4 3 3 3 3 2 1 1 1 -1 -1 -2 -2 -3 -3 -3 -4 -4 -5 -5 -5
11 12 12 11 13 12 11 9 9 8 6 6 5 6 8 7 7 7 6 6 5 4 4 3 4 3 3 3 2 1 1 -0 -1 -1 -2 -3 -3 -3 -3 -4 -4 -5 -5 -5
10 12 13 12 13 9 9 7 6 6 6 7 7 7 7 7 7 6 6 5 4 3 3 3 3 3 2 2 2 1 -0 -1 -1 -2 -2 -3 -3 -4 -4 -4 -5 -5 -5 -6
10 12 12 11 9 8 6 6 6 7 6 7 7 7 7 7 6 5 4 3 3 3 3 3 2 2 2 2 2 0 -1 -1 -2 -3 -3 -3 -4 -4 -5 -5 -6 -6 -6 -6
11 13 11 10 7 7 6 7 7 6 7 7 6 6 5 5 4 3 3 2 2 2 2 1 1 1 1 0 -0 -1 -1 -2 -3 -3 -4 -4 -4 -5 -5 -6 -6 -7 -8 -8
12 11 9 7 6 7 7 7 7 6 6 6 5 4 3 3 2 2 2 2 2 1 0 -0 -1 -1 -1 -1 -2 -2 -2 -3 -3 -3 -4 -4 -5 -5 -6 -6 -7 -7 -8 -9
9 9 7 7 7 7 7 6 6 5 5 4 3 3 2 1 1 2 2 1 0 -0 -0 -2 -2 -3 -3 -3 -3 -3 -3 -3 -4 -5 -5 -5 -6 -6 -7 -7 -8 -8 -9 -9
7 7 7 6 6 7 6 5 5 5 4 4 3 2 2 2 1 1 0 0 -1 -1 -1 -3 -4 -4 -4 -3 -3 -3 -4 -4 -4 -5 -5 -6 -7 -7 -7 -7 -8 -8 -9 -10
6 6 6 6 6 6 6 5 5 5 4 3 2 1 0 -1 -2 -2 -1 -1 -2 -2 -3 -4 -4 -4 -4 -3 -3 -4 -4 -5 -5 -5 -6 -6 -7 -7 -7 -8 -8 -9 -9 -10
6 6 5 5 4 4 4 4 3 3 2 1 1 -1 -2 -2 -2 -2 -3 -2 -3 -3 -3 -4 -4 -4 -4 -4 -4 -4 -4 -5 -5 -6 -6 -7 -7 -7 -8 -8 -9 -9 -10 -11
5 5 4 3 3 3 3 2 1 1 1 1 0 -1 -1 -3 -2 -2 -3 -3 -4 -4 -3 -4 -4 -4 -4 -4 -4 -4 -5 -5 -5 -6 -6 -7 -7 -8 -9 -9 -9 -10 -10 -11
4 3 3 2 2 1 1 1 1 1 0 0 -1 -2 -1 -1 -2 -1 -3 -4 -4 -4 -3 -4 -4 -4 -4 -5 -5 -5 -5 -5 -5 -6 -6 -7 -7 -8 -9 -9 -9 -10 -11 -11
2 3 3 2 2 1 -0 0 0 -1 -1 -1 -1 -3 -2 -1 -1 -2 -2 -4 -3 -3 -3 -4 -4 -5 -5 -5 -5 -5 -6 -6 -6 -6 -6 -7 -8 -8 -9 -9 -9 -10 -11 -11
1 1 1 0 -0 1 0 -0 -1 -2 -2 -2 -3 -3 -2 -1 -1 -2 -4 -3 -2 -3 -3 -3 -4 -4 -5 -5 -5 -5 -6 -6 -6 -6 -6 -7 -8 -8 -9 -9 -9 -10 -11 -11
1 0 0 0 -1 -1 -0 -1 -1 -2 -2 -2 -2 -3 -2 -1 -1 -2 -2 -3 -3 -3 -3 -3 -3 -4 -5 -5 -5 -5 -6 -6 -6 -6 -6 -7 -8 -8 -8 -9 -9 -10 -10 -11
0 0 -0 -0 -1 -1 -1 -1 -0 -1 -2 -3 -3 -3 -3 -2 -2 -3 -2 -2 -2 -3 -3 -3 -4 -4 -4 -5 -5 -5 -5 -6 -6 -6 -6 -6 -7 -8 -8 -9 -9 -9 -10 -11
0 0 -0 0 -1 -2 -3 -1 -1 -2 -3 -3 -2 -2 -2 -2 -3 -2 -3 -3 -3 -3 -3 -3 -4 -4 -4 -5 -5 -5 -6 -6 -6 -6 -6 -6 -7 -7 -8 -8 -9 -9 -10 -10
1 -0 -1 -2 -2 -2 -2 -2 -2 -2 -2 -2 -1 -1 -1 -2 -3 -2 -2 -3 -3 -4 -4 -4 -4 -4 -5 -5 -5 -6 -6 -7 -6 -6 -6 -6 -6 -7 -7 -8 -8 -9 -9 -10
-0 -1 -2 -2 -2 -2 -2 -3 -2 -2 -1 -2 -1 -1 -1 -2 -3 -3 -2 -2 -3 -3 -4 -4 -5 -5 -5 -5 -6 -6 -6 -6 -6 -6 -6 -6 -6 -6 -7 -7 -8 -9 -9 -10
-1 -1 -1 -2 -2 -1 -2 -3 -2 -2 -2 -2 -2 -1 -2 -2 -2 -2 -3 -3 -4 -4 -4 -4 -5 -5 -5 -6 -6 -6 -6 -7 -7 -7 -6 -6 -6 -7 -7 -7 -8 -8 -9 -9

GFSNGP_925_temp_021.txt.gz
Temp
21 22 22 21 21 21 21 21 19 20 21 22 22 21 20 20 20 19 18 18 17 15 15 14 14 13 12 11 11 10 9 9 8 7 6 6 5 5 5 5 5 5 4 4
18 21 21 20 21 21 21 20 21 21 20 22 21 21 19 19 18 17 17 16 13 13 14 13 13 12 11 11 10 9 9 8 8 7 6 5 5 5 5 5 4 4 4 3
16 18 16 15 19 20 21 21 20 18 20 21 20 19 16 16 16 16 14 11 10 13 13 13 13 12 11 11 10 9 9 8 7 6 5 5 5 5 4 4 3 3 3 3
14 13 15 20 21 21 20 20 21 20 21 20 18 17 17 15 13 12 10 11 13 13 13 13 12 12 11 10 10 9 9 8 6 5 5 5 5 4 4 3 3 3 2 2
13 16 18 19 19 19 18 18 20 19 19 18 17 15 16 12 12 12 12 12 13 12 12 12 12 11 11 10 10 9 9 8 7 5 5 5 4 4 3 3 3 2 2 1
13 13 14 19 20 18 18 16 18 17 17 16 15 12 13 9 11 12 12 13 13 12 12 12 12 11 10 10 10 9 9 8 7 5 5 4 4 3 3 3 3 2 -0 -1
13 13 16 19 18 18 15 15 16 15 13 11 10 10 10 10 12 12 12 13 12 12 12 11 10 10 10 10 10 9 8 7 6 5 3 4 3 3 3 3 2 -0 -2 -2
13 12 13 19 18 14 15 15 14 12 10 8 10 11 12 12 13 12 13 13 12 11 11 10 9 9 9 9 9 8 7 6 3 1 2 3 3 3 3 2 1 -1 -2 -3
16 17 19 19 17 17 15 14 13 11 9 11 12 12 12 12 13 13 12 12 11 10 9 9 8 8 8 7 6 5 5 3 2 2 2 3 2 2 2 1 -0 -2 -3 -3
15 18 18 17 16 13 13 12 10 9 12 12 12 12 12 12 12 12 11 10 10 9 9 8 8 7 6 5 4 3 3 3 2 2 2 2 2 2 1 -0 -2 -3 -3 -4
16 17 16 14 12 10 11 10 11 12 12 12 12 12 12 12 11 10 9 9 8 8 8 8 7 6 5 3 3 2 2 2 2 2 2 1 0 1 -0 -2 -4 -4 -4 -5
14 15 12 11 9 9 10 12 12 11 11 11 11 12 11 10 9 9 8 8 8 8 8 7 6 5 3 2 1 0 0 1 2 1 1 -1 -1 -1 -2 -3 -4 -5 -6 -7
15 14 12 9 9 11 11 11 11 11 11 11 11 10 10 9 9 8 8 8 7 7 6 5 4 2 1 0 -1 -2 -2 -1 -1 -1 -2 -2 -2 -2 -3 -3 -5 -5 -7 -7
13 11 9 10 11 11 11 11 11 11 11 10 9 9 8 8 7 7 7 6 6 4 3 3 2 1 0 -1 -1 -2 -2 -2 -3 -3 -3 -3 -3 -4 -4 -4 -4 -4 -6 -7
11 11 11 11 11 12 11 11 11 10 9 9 8 7 7 6 6 6 6 5 3 1 0 1 1 0 -1 -2 -2 -2 -2 -2 -3 -4 -4 -4 -4 -4 -4 -4 -4 -4 -4 -5
12 12 12 11 11 11 10 10 9 9 8 7 6 5 5 4 4 4 3 3 1 0 -1 -2 -3 -2 -2 -2 -1 -1 -1 -3 -3 -3 -4 -4 -4 -4 -4 -4 -4 -4 -4 -5
10 10 10 9 10 9 9 9 8 7 6 5 5 3 1 1 0 2 1 0 -0 -1 -2 -2 -3 -2 -2 -3 -2 -2 -3 -3 -4 -3 -3 -4 -4 -4 -4 -5 -5 -5 -5 -7
10 10 10 9 9 8 8 6 5 5 4 3 1 -0 -1 -0 -0 -1 -1 -1 -1 -1 -2 -2 -3 -3 -3 -2 -3 -3 -3 -4 -4 -3 -4 -4 -4 -4 -5 -5 -5 -5 -5 -6
9 9 9 8 7 6 5 5 5 3 1 1 0 -0 -1 -1 -1 -1 -1 -1 -1 -1 -1 -1 -3 -3 -3 -3 -4 -3 -4 -4 -4 -4 -4 -4 -4 -4 -5 -5 -5 -5 -6 -6
8 8 7 7 5 3 3 2 2 2 2 1 0 -1 -1 -1 -1 -2 -2 -1 -1 -1 -2 -2 -3 -3 -3 -3 -4 -4 -4 -4 -4 -4 -4 -3 -4 -4 -5 -5 -5 -5 -6 -6
6 6 5 3 3 2 2 2 1 0 1 -0 -1 -1 -2 -2 -1 -2 -1 0 0 -1 -2 -3 -3 -2 -2 -3 -4 -4 -4 -4 -4 -4 -4 -4 -4 -4 -4 -5 -5 -5 -6 -6
6 5 4 3 1 1 1 1 1 1 -0 -1 -2 -1 -1 -1 -1 -1 -1 -1 -0 -1 -2 -2 -2 -2 -2 -3 -3 -4 -4 -4 -4 -4 -4 -4 -4 -4 -5 -5 -5 -6 -6 -6
5 4 4 3 1 2 2 1 1 0 -1 -1 -1 -1 -1 -1 -1 -1 -0 -0 -1 -2 -2 -2 -2 -3 -3 -4 -4 -4 -4 -4 -4 -4 -4 -4 -4 -5 -5 -5 -6 -6 -6 -6
4 4 4 3 2 0 0 3 3 1 0 -0 -1 -0 -1 -1 -1 -1 -1 -1 -2 -2 -2 -2 -2 -3 -3 -4 -4 -4 -4 -4 -4 -4 -4 -4 -4 -5 -5 -6 -6 -6 -6 -7
4 3 2 2 1 3 4 4 3 3 2 1 0 -0 -1 -1 -2 -2 -2 -2 -2 -3 -3 -3 -3 -3 -4 -4 -4 -4 -4 -4 -5 -5 -5 -5 -5 -5 -5 -5 -6 -6 -7 -7
4 4 4 4 4 3 3 3 3 1 0 -0 -0 -1 -1 -1 -2 -2 -2 -2 -2 -3 -3 -3 -3 -3 -4 -4 -4 -4 -4 -5 -5 -5 -6 -6 -6 -6 -5 -5 -5 -6 -6 -7
4 4 4 3 3 4 3 2 0 -1 -1 -2 -2 -2 -2 -2 -2 -2 -2 -2 -2 -2 -3 -3 -3 -4 -4 -4 -4 -4 -5 -5 -5 -6 -6 -7 -7 -6 -6 -6 -6 -6 -6 -7

GFSNGP_925_temp_024.txt.gz
Temp
21 22 22 22 22 22 21 21 19 20 21 22 21 21 20 18 18 17 18 17 15 14 13 14 14 14 13 12 12 11 10 10 9 9 7 6 6 5 5 5 5 4 4 4
18 22 21 20 20 20 21 22 22 20 20 22 22 19 18 18 18 17 15 14 13 12 13 14 14 13 13 12 12 11 10 10 9 8 6 6 5 5 5 5 4 4 3 3
16 16 16 15 18 21 21 21 21 18 20 22 18 17 17 16 15 14 13 12 13 13 14 13 13 13 13 12 12 11 10 10 10 7 6 6 5 5 5 4 4 3 3 3
14 13 15 20 22 22 20 21 21 21 21 19 17 17 17 14 13 12 13 13 13 13 13 13 13 12 12 12 11 11 10 8 9 7 6 6 5 5 4 4 3 3 3 2
14 16 18 19 20 19 18 17 20 19 17 17 16 15 15 13 12 11 12 13 13 13 13 13 12 12 11 10 10 11 10 7 5 6 6 5 5 5 4 3 3 3 2 1
13 12 14 19 20 19 19 16 17 16 15 14 13 10 11 12 11 13 13 13 13 13 13 12 11 10 10 10 10 10 7 6 6 7 6 5 3 2 3 3 3 2 0 -1
13 13 15 19 19 18 15 14 15 14 13 12 11 10 12 12 13 13 13 13 13 13 12 11 10 9 9 9 9 8 7 6 5 4 2 2 0 2 3 3 2 0 -1 -2
13 13 13 19 18 13 15 15 14 13 12 11 11 12 13 13 13 13 13 12 12 11 11 10 9 9 8 8 7 6 5 4 4 3 2 1 1 2 2 2 1 -1 -2 -3
15 15 17 17 16 14 14 13 12 11 12 12 12 12 12 12 13 12 12 11 10 10 9 9 9 8 8 7 5 4 4 3 2 1 1 1 -0 1 2 1 -1 -2 -3 -3
16 18 19 16 14 13 12 11 11 11 12 12 12 12 12 12 12 11 10 10 9 9 9 9 8 8 7 5 4 3 2 2 2 2 2 2 1 1 1 -0 -1 -2 -3 -4
17 18 17 13 12 11 12 11 11 13 12 12 12 12 12 12 11 10 10 9 9 9 8 8 7 6 5 3 2 1 1 1 1 1 1 1 0 -0 -1 -1 -2 -4 -4 -5
14 15 15 13 11 11 11 12 12 12 12 12 12 11 11 10 10 9 8 8 8 8 7 6 5 4 3 2 1 0 -1 -1 -1 -2 -1 -1 -1 -1 -2 -2 -3 -4 -5 -6
16 14 13 12 11 12 12 12 12 11 12 11 11 10 9 9 8 7 7 7 7 7 6 4 3 2 2 1 -0 -1 -2 -2 -2 -2 -2 -2 -2 -3 -3 -3 -3 -3 -5 -6
15 12 10 11 11 12 12 12 12 11 11 10 9 8 8 7 7 6 6 6 5 5 4 2 1 0 -0 -1 -1 -1 -2 -2 -2 -3 -3 -3 -3 -3 -4 -4 -4 -4 -4 -5
13 13 12 10 12 12 12 11 11 10 10 9 8 7 6 5 5 4 4 3 3 2 2 2 -0 -1 -2 -2 -1 -1 -1 -2 -2 -3 -3 -3 -3 -4 -4 -4 -4 -4 -4 -5
13 13 12 12 12 11 11 10 10 9 8 7 6 5 4 3 3 2 2 2 0 -0 -0 -1 -1 -2 -2 -2 -2 -1 -1 -2 -2 -3 -3 -3 -4 -4 -4 -4 -4 -4 -4 -6
11 11 11 10 10 10 10 9 8 7 6 5 4 3 1 1 -0 1 0 -0 -1 -1 -1 -1 -1 -2 -3 -2 -2 -1 -1 -2 -3 -3 -3 -4 -3 -4 -4 -4 -5 -5 -5 -6
11 11 11 10 9 9 8 7 5 5 4 3 2 1 0 -0 -1 -1 -1 -1 -1 -1 -1 -1 -1 -2 -3 -3 -2 -2 -3 -3 -4 -4 -3 -3 -4 -4 -4 -4 -5 -5 -5 -6
10 10 9 9 8 6 5 5 4 4 3 2 2 1 -0 -1 -1 -1 -1 -2 -2 -1 -0 -1 -1 -2 -3 -3 -3 -3 -3 -4 -4 -4 -4 -4 -4 -4 -4 -4 -4 -5 -5 -6
8 8 8 7 5 4 3 3 3 2 2 2 1 -0 -1 -1 -1 -2 -1 -2 -1 -1 -0 -1 -2 -3 -3 -3 -3 -3 -4 -4 -4 -4 -4 -3 -3 -3 -4 -4 -5 -5 -5 -5
5 5 5 5 4 3 3 3 2 1 1 1 -0 -1 -1 -1 -1 -1 -1 -1 -0 -0 -1 -1 -2 -3 -2 -3 -3 -3 -4 -4 -4 -4 -4 -4 -4 -4 -4 -4 -4 -5 -5 -5
6 5 5 4 3 3 3 2 2 2 1 0 -0 -1 -1 -1 -1 -1 -1 -1 -1 -1 -1 -2 -2 -2 -2 -2 -3 -3 -3 -4 -4 -3 -4 -4 -4 -4 -4 -4 -5 -5 -5 -6
4 4 4 4 3 3 2 2 2 1 -0 -1 -0 -0 -1 -1 -1 -1 -1 -1 -1 -2 -2 -2 -2 -2 -2 -3 -3 -3 -4 -4 -4 -4 -4 -4 -4 -4 -4 -4 -5 -5 -5 -6
4 4 4 4 3 3 1 2 2 3 2 2 1 1 0 -1 -1 -1 -1 -2 -1 -2 -2 -2 -2 -2 -3 -3 -4 -4 -4 -4 -4 -4 -4 -4 -4 -4 -4 -5 -5 -5 -5 -6
4 4 3 3 2 2 2 3 3 4 3 2 1 -0 -0 -1 -1 -1 -1 -1 -2 -2 -2 -2 -2 -3 -3 -3 -4 -4 -4 -4 -4 -4 -4 -5 -5 -5 -5 -5 -5 -5 -5 -6
4 4 4 4 3 3 3 3 3 3 1 -0 -0 -1 -1 -1 -2 -2 -2 -2 -2 -2 -2 -2 -2 -3 -3 -3 -4 -4 -4 -4 -4 -4 -5 -5 -5 -5 -6 -6 -6 -5 -5 -5
4 4 4 4 4 4 4 3 2 0 -0 -1 -1 -2 -2 -2 -2 -2 -2 -2 -2 -2 -2 -2 -2 -3 -3 -3 -4 -4 -4 -4 -4 -5 -5 -5 -6 -6 -6 -6 -6 -6 -6 -6

GFSNGP_925_temp_027.txt.gz
Temp
18 19 20 20 19 19 19 17 15 15 18 19 16 15 15 15 14 13 13 12 11 10 11 12 13 13 13 12 12 12 11 10 10 9 9 6 6 5 5 5 5 4 4 3
16 17 17 17 16 17 18 19 19 18 18 17 16 15 14 13 13 12 12 11 11 11 12 12 13 12 12 12 12 11 11 10 9 8 7 7 6 5 5 5 4 4 3 3
12 13 12 12 16 19 20 19 19 16 17 14 14 13 11 10 10 10 10 10 10 11 12 12 12 12 11 10 10 10 9 8 6 6 5 4 3 2 4 4 4 3 3 3
8 9 11 17 19 19 18 17 17 16 14 14 12 11 10 10 9 9 9 10 11 12 12 13 12 10 10 9 9 9 8 7 5 5 4 3 2 3 4 3 3 3 2 1
10 10 13 16 18 17 16 15 14 14 13 12 12 13 11 11 10 10 9 11 12 12 11 11 10 10 9 9 9 8 6 6 5 5 4 4 3 2 0 1 3 2 1 0
7 9 9 13 17 18 18 10 13 12 11 10 10 7 8 9 10 10 11 12 11 10 10 10 9 9 9 8 8 7 5 4 4 4 3 2 2 1 1 2 2 1 -1 -2
6 8 10 14 17 18 13 11 12 11 10 9 8 7 8 9 11 12 11 11 10 10 9 9 9 9 8 7 6 5 4 3 3 2 2 1 0 0 2 2 0 -1 -2 -2
10 11 9 16 16 13 11 11 10 10 10 10 10 10 10 10 10 11 10 10 10 9 9 8 9 8 7 5 4 4 3 2 2 2 1 1 0 -1 0 0 -1 -1 -2 -3
10 10 13 14 14 12 11 10 10 10 10 10 10 10 10 10 10 10 10 10 9 8 8 8 7 7 5 4 3 3 2 1 1 1 1 1 1 -0 -0 -1 -1 -2 -3 -4
12 15 14 11 11 10 10 10 11 10 10 11 11 10 10 8 8 8 8 7 8 7 7 7 6 5 4 3 2 2 1 0 -0 -1 -0 -0 -1 -1 -1 -2 -2 -3 -4 -4
12 15 12 12 11 10 9 10 10 11 11 11 10 9 8 7 7 7 7 7 6 6 6 6 4 3 2 2 2 1 0 -1 -1 -2 -2 -1 -1 -2 -2 -3 -3 -4 -4 -5
9 13 13 10 9 10 10 10 10 10 10 11 9 8 7 7 7 6 6 6 5 5 5 4 2 2 1 1 1 0 -1 -2 -2 -2 -2 -2 -2 -2 -3 -3 -3 -4 -4 -5
12 10 10 9 10 11 11 10 10 11 10 8 8 7 7 6 6 5 5 4 4 3 3 3 2 2 1 -0 -1 -2 -2 -2 -2 -2 -2 -3 -3 -3 -4 -3 -3 -4 -4 -5
11 10 9 10 9 11 11 11 11 10 9 8 7 6 5 5 4 4 3 3 2 2 1 0 0 0 -1 -2 -2 -2 -2 -2 -2 -2 -2 -3 -3 -4 -4 -4 -4 -4 -4 -5
11 11 10 10 11 11 10 10 8 7 7 6 6 5 4 3 3 2 2 1 1 -0 -1 -1 -2 -1 -1 -2 -2 -2 -2 -1 -2 -2 -3 -3 -4 -4 -4 -4 -4 -4 -4 -5
11 11 10 10 10 9 8 7 6 5 5 5 4 4 3 2 1 1 0 -0 -1 -1 -1 -1 -2 -1 -1 -2 -2 -2 -2 -2 -2 -3 -3 -3 -3 -4 -4 -4 -4 -4 -5 -5
10 9 8 8 7 7 7 6 5 4 4 4 3 3 2 1 0 -1 -1 -1 -1 -1 -1 -0 -1 -0 -1 -2 -2 -2 -2 -2 -3 -3 -3 -3 -4 -4 -4 -4 -4 -5 -5 -5
9 9 9 8 7 6 5 4 4 4 3 3 3 2 1 0 -1 -1 -1 -1 -1 -1 -1 -1 -1 -1 -1 -2 -3 -3 -3 -3 -3 -3 -3 -4 -3 -4 -4 -4 -4 -4 -5 -5
9 8 7 6 6 5 4 4 4 3 3 3 2 1 0 -0 -1 -1 -1 -1 -1 -1 -1 -1 -1 -1 -2 -3 -3 -3 -3 -4 -3 -4 -4 -4 -4 -4 -4 -4 -4 -4 -5 -5
6 6 6 5 5 5 4 3 3 2 3 1 1 1 -0 -0 -1 -1 -1 -2 -1 -0 -0 -1 -1 -1 -2 -3 -3 -3 -3 -3 -4 -3 -3 -4 -4 -4 -4 -4 -4 -4 -5 -5
5 5 5 5 5 4 3 3 2 2 2 1 0 0 -0 -0 -0 -0 -2 -1 -1 -1 -1 -1 -1 -2 -2 -3 -3 -3 -3 -3 -3 -3 -3 -4 -4 -4 -4 -4 -4 -5 -5 -5
4 4 4 4 3 3 3 3 3 2 2 1 1 0 -0 -0 -0 -1 -1 -1 -1 -1 -2 -2 -2 -2 -2 -2 -3 -3 -3 -3 -4 -4 -3 -3 -3 -3 -4 -4 -4 -4 -5 -5
4 4 4 4 4 3 3 3 3 2 1 1 0 0 0 -0 -1 -2 -1 -1 -1 -1 -2 -2 -2 -2 -2 -2 -2 -2 -3 -4 -3 -4 -4 -4 -4 -4 -4 -4 -4 -4 -5 -5
4 4 3 4 3 3 2 3 3 3 2 2 2 1 0 0 -1 -1 -1 -1 -1 -2 -2 -2 -2 -2 -3 -3 -3 -3 -4 -5 -4 -4 -4 -4 -4 -4 -4 -5 -5 -5 -5 -5
4 3 3 3 2 2 3 3 3 3 3 2 1 0 -0 -1 -1 -1 -2 -2 -1 -2 -2 -2 -2 -2 -2 -3 -3 -4 -4 -4 -4 -4 -4 -4 -4 -4 -5 -5 -5 -6 -5 -5
3 3 3 3 3 3 3 3 2 2 2 1 0 -1 -1 -1 -1 -2 -2 -2 -2 -3 -3 -3 -3 -2 -3 -3 -3 -3 -3 -4 -4 -4 -4 -4 -4 -5 -5 -5 -6 -6 -6 -6
4 4 4 3 3 3 2 2 1 0 0 -1 -1 -1 -2 -1 -2 -2 -3 -3 -3 -3 -3 -3 -3 -3 -3 -3 -3 -3 -3 -4 -4 -4 -4 -4 -5 -5 -5 -6 -6 -7 -7 -7

GFSNGP_925_temp_030.txt.gz
Temp
17 17 18 19 18 17 17 15 14 15 15 15 13 13 12 12 11 11 11 11 10 10 10 11 12 12 11 10 10 10 9 9 8 7 7 7 6 5 4 2 2 1 3 3
16 15 14 16 16 15 16 17 17 15 13 14 13 12 11 11 10 10 10 10 9 10 11 11 11 10 10 9 9 9 8 7 6 6 6 5 5 4 3 1 0 2 3 3
12 11 12 12 16 18 19 17 17 15 13 12 12 11 10 9 9 10 10 9 9 10 10 9 9 9 9 9 9 8 7 6 5 5 5 4 4 3 3 1 1 1 1 2
8 8 11 15 16 17 14 14 13 13 12 12 11 10 9 9 9 9 9 9 9 9 9 9 9 9 9 8 8 7 6 5 4 4 4 3 3 3 2 1 0 -1 0 0
7 9 12 16 16 16 15 13 13 12 11 11 10 9 9 10 10 10 9 9 9 9 9 9 8 8 8 8 7 6 5 4 3 3 2 2 2 2 0 -0 -1 -0 -0 -1
7 8 9 13 16 16 15 11 12 11 10 10 9 6 8 9 9 9 9 9 9 9 8 8 8 8 7 6 5 4 3 3 3 2 1 1 0 -0 -1 -1 -0 -1 -2 -2
3 5 8 12 15 16 12 12 11 10 9 9 9 7 8 9 10 10 9 9 9 8 8 8 7 7 6 5 4 3 3 2 2 1 1 1 0 -1 -1 -1 -1 -1 -2 -3
6 5 9 13 15 13 11 10 9 9 9 8 8 9 9 10 9 9 8 8 7 7 7 7 6 6 5 4 3 3 2 1 0 0 1 0 -0 -1 -1 -1 -1 -2 -3 -4
10 10 12 13 14 12 10 9 9 9 8 9 9 9 10 7 7 7 7 7 7 6 6 6 5 4 3 3 2 2 1 0 -0 -1 -1 -1 -1 -1 -2 -2 -3 -3 -4 -4
11 14 12 12 10 10 10 9 9 9 9 9 9 8 7 6 6 6 6 6 6 5 5 4 4 3 2 2 1 1 0 -0 -1 -2 -2 -2 -2 -2 -2 -3 -3 -4 -4 -5
10 12 11 11 10 9 9 9 10 10 10 8 7 6 6 5 5 5 5 5 4 4 3 3 3 2 2 1 1 0 -0 -1 -2 -2 -3 -3 -3 -3 -3 -3 -4 -4 -4 -5
9 12 11 10 8 9 9 10 10 9 7 7 7 6 6 5 5 4 4 4 3 3 2 2 1 0 1 -0 -0 -1 -1 -2 -2 -2 -3 -3 -3 -3 -3 -3 -4 -4 -4 -5
12 11 11 8 8 10 11 10 9 8 7 5 6 6 5 4 4 4 3 3 2 1 1 0 -1 -1 -1 -1 -2 -2 -2 -2 -2 -2 -2 -3 -3 -4 -4 -4 -4 -4 -4 -5
10 9 9 9 9 10 10 9 8 7 7 6 5 5 4 4 3 3 2 1 1 -0 -1 -1 -2 -2 -2 -1 -2 -2 -2 -2 -2 -2 -3 -3 -4 -4 -4 -4 -4 -4 -4 -5
9 10 9 10 10 9 8 8 6 5 5 4 4 4 3 2 2 1 1 -0 -1 -1 -1 -1 -1 -1 -1 -1 -2 -2 -2 -2 -2 -2 -3 -3 -4 -4 -4 -4 -5 -5 -5 -5
9 10 10 10 9 8 7 6 5 4 4 4 3 3 3 2 1 1 0 -1 -1 -2 -1 -1 -1 -0 -0 -1 -2 -2 -2 -2 -3 -3 -3 -3 -4 -4 -4 -4 -4 -4 -5 -5
9 8 7 7 6 6 6 5 5 4 4 3 3 3 2 1 0 0 -0 -1 -1 -1 -2 -1 -1 -1 -1 -1 -2 -3 -2 -3 -3 -4 -4 -3 -4 -4 -4 -4 -4 -4 -4 -5
8 7 7 6 5 5 4 4 4 4 3 3 3 2 1 0 -1 -1 -1 -1 -1 -1 -0 -0 -1 -1 -0 -1 -2 -2 -3 -3 -4 -4 -4 -4 -4 -4 -4 -4 -4 -4 -5 -5
5 4 5 5 5 4 4 3 3 3 3 3 1 1 1 0 -0 -1 -1 -1 -1 -1 -1 -1 -1 -1 -1 -1 -2 -3 -3 -3 -3 -4 -4 -4 -4 -4 -4 -4 -4 -4 -4 -5
5 5 5 5 5 5 4 4 3 3 3 2 1 0 -0 0 0 0 -1 -2 -1 -0 -1 -2 -2 -1 -2 -1 -2 -3 -3 -3 -3 -4 -4 -4 -4 -4 -4 -4 -4 -4 -4 -5
4 4 4 4 4 4 4 3 2 2 3 2 1 0 0 1 0 -0 -1 -3 -1 -1 -1 -2 -2 -2 -2 -2 -3 -2 -3 -3 -4 -4 -4 -4 -4 -4 -4 -4 -4 -4 -4 -4
3 3 4 4 3 3 3 3 3 2 2 1 1 0 -1 -0 0 -0 -1 -2 -2 -2 -2 -2 -2 -2 -2 -3 -3 -3 -3 -3 -3 -3 -4 -4 -4 -4 -4 -4 -4 -4 -5 -5
3 3 3 3 3 2 3 3 3 3 2 2 2 1 -0 0 0 -2 -2 -1 -2 -2 -2 -2 -2 -2 -2 -3 -3 -3 -2 -3 -3 -4 -4 -5 -4 -4 -4 -4 -4 -4 -4 -5
3 3 2 3 3 2 2 3 3 3 2 2 2 3 1 -0 -1 -1 -2 -2 -2 -2 -2 -2 -3 -2 -3 -3 -3 -3 -3 -3 -3 -4 -4 -4 -4 -4 -4 -4 -5 -5 -5 -5
3 3 3 3 2 2 3 3 2 2 2 1 2 2 0 -1 -2 -2 -2 -2 -2 -3 -3 -3 -3 -3 -3 -3 -3 -3 -3 -3 -3 -4 -4 -4 -4 -5 -4 -4 -5 -5 -5 -6
3 3 3 3 3 3 3 2 1 1 0 -0 1 0 -1 -2 -2 -2 -2 -3 -3 -3 -4 -4 -4 -4 -4 -4 -3 -3 -3 -3 -4 -4 -4 -4 -4 -4 -4 -5 -5 -5 -6 -6
3 3 3 2 2 2 2 1 0 -1 -1 -2 -2 -1 -2 -2 -2 -3 -3 -4 -4 -4 -5 -5 -6 -6 -5 -5 -4 -4 -3 -3 -4 -4 -4 -4 -4 -4 -4 -5 -5 -6 -7 -7

GFSNGP_925_temp_033.txt.gz
Temp
15 15 17 18 18 15 15 14 14 14 14 14 12 11 10 10 10 10 10 10 10 9 10 10 10 10 9 9 9 9 8 8 7 6 6 6 5 5 4 4 3 1 0 1
16 13 13 16 16 15 14 15 14 13 13 12 11 11 10 10 10 10 10 10 10 9 9 8 9 9 9 9 8 8 8 6 6 6 5 4 4 3 3 3 1 1 0 0
12 10 11 11 14 15 16 16 14 12 13 11 11 10 9 9 9 9 9 9 8 8 8 8 8 9 8 8 8 8 6 6 5 4 4 3 3 2 2 2 1 -1 -0 -1
8 8 11 15 14 15 16 14 13 12 11 11 10 10 9 8 9 8 8 9 8 8 8 8 8 8 8 8 7 6 6 4 4 3 3 2 2 1 0 -0 -1 -1 -1 -2
7 9 12 16 14 14 15 14 12 11 10 10 9 8 9 8 8 8 8 8 8 9 8 8 8 7 7 6 6 5 4 3 3 2 2 1 1 -0 -0 -1 -1 -1 -2 -2
6 8 9 13 15 15 15 12 11 11 9 9 8 6 7 7 8 8 8 8 8 8 7 7 7 6 6 6 5 4 3 3 2 1 1 1 0 -1 -1 -1 -1 -2 -2 -3
2 5 9 11 14 15 13 12 10 10 9 8 7 7 8 8 8 8 8 8 7 7 6 6 6 6 5 5 4 3 3 2 1 0 0 0 -0 -2 -2 -2 -2 -2 -3 -4
5 6 11 11 14 13 11 10 10 9 8 8 8 8 8 8 6 7 6 6 6 6 6 5 5 5 4 3 3 2 2 1 0 -0 -1 -0 -1 -1 -2 -2 -2 -3 -4 -4
10 10 12 11 13 12 10 9 8 8 8 9 8 8 7 6 5 6 6 6 5 5 4 4 4 4 3 2 2 1 1 0 -1 -1 -1 -2 -1 -2 -2 -2 -3 -4 -4 -5
11 13 11 11 11 10 10 9 8 9 9 9 8 7 6 5 4 5 5 5 4 4 3 3 3 2 2 1 1 1 0 -0 -1 -2 -2 -2 -2 -2 -3 -3 -4 -4 -4 -5
9 11 11 10 9 9 9 8 9 9 9 8 6 6 5 4 4 4 4 4 3 2 2 2 1 1 0 -0 -0 -1 -1 -1 -2 -3 -3 -3 -3 -4 -4 -4 -4 -4 -4 -5
10 11 11 11 9 8 8 8 9 8 7 7 6 5 5 4 4 3 3 3 2 2 1 0 -0 -1 -1 -1 -1 -1 -2 -2 -2 -3 -3 -3 -3 -4 -4 -4 -4 -4 -4 -4
12 11 10 9 7 8 9 9 9 7 7 5 6 5 5 4 3 3 2 2 1 0 -0 -1 -1 -1 -2 -1 -1 -2 -2 -2 -3 -3 -3 -3 -3 -4 -4 -4 -4 -4 -4 -5
10 9 9 8 8 9 9 8 7 6 6 6 5 4 4 3 2 2 1 1 0 -0 -1 -1 -1 -1 -1 -1 -1 -2 -2 -2 -3 -3 -3 -3 -3 -4 -4 -4 -4 -4 -5 -5
8 9 9 8 8 7 7 7 5 4 4 3 4 3 3 2 2 1 1 1 -0 -1 -1 -2 -2 -2 -1 -1 -1 -2 -2 -3 -3 -3 -3 -3 -4 -4 -4 -4 -4 -5 -4 -5
9 8 8 8 7 6 5 4 4 4 4 3 3 3 2 2 1 1 1 0 -1 -2 -1 -1 -1 -1 -1 -1 -1 -2 -2 -3 -3 -3 -4 -4 -4 -4 -4 -4 -4 -4 -4 -5
7 6 6 6 5 5 4 5 4 4 3 3 3 2 2 1 1 1 1 0 -1 -1 -1 -1 -1 -1 -1 -1 -2 -2 -2 -3 -3 -4 -4 -4 -4 -4 -4 -4 -4 -4 -4 -4
6 5 4 3 2 3 4 3 3 3 3 3 2 2 2 1 -1 0 0 -0 -1 -1 -0 -0 -1 -1 -1 -1 -2 -2 -2 -3 -4 -4 -4 -4 -4 -4 -4 -4 -4 -4 -4 -4
3 3 3 3 4 4 3 3 3 3 2 2 2 2 1 1 0 0 -0 -1 -1 -2 -0 -1 -1 -2 -2 -2 -2 -2 -3 -3 -4 -4 -4 -4 -4 -4 -4 -4 -4 -4 -4 -4
4 4 4 4 4 4 3 3 3 3 2 2 1 1 0 1 1 -0 -1 -2 -0 -1 -1 -1 -2 -2 -2 -2 -2 -3 -3 -3 -4 -4 -4 -4 -4 -4 -4 -4 -4 -4 -4 -4
3 3 3 4 3 3 3 3 2 2 2 2 0 0 -0 0 0 -0 -2 -3 0 -1 -1 -1 -2 -2 -2 -2 -3 -3 -3 -3 -3 -3 -4 -4 -4 -4 -4 -4 -4 -4 -4 -4
3 3 3 3 2 2 3 2 2 2 2 2 2 1 -1 -1 -0 -0 -0 -1 -0 -1 -2 -2 -2 -2 -3 -3 -2 -3 -3 -3 -3 -3 -3 -3 -4 -4 -4 -4 -4 -4 -4 -4
2 2 2 2 2 2 3 3 3 2 2 2 2 1 1 0 -1 -2 -3 -0 -2 -2 -2 -3 -3 -3 -4 -3 -3 -3 -3 -4 -4 -4 -4 -4 -4 -4 -5 -5 -5 -4 -4 -5
3 3 3 3 2 2 1 3 3 3 2 2 1 1 1 0 0 -0 -1 -2 -2 -3 -3 -4 -4 -3 -3 -3 -4 -4 -4 -4 -4 -4 -4 -4 -4 -4 -4 -5 -5 -4 -4 -5
2 2 2 2 1 2 2 2 1 1 2 1 1 1 0 0 -1 -0 -2 -2 -3 -3 -4 -4 -4 -5 -5 -4 -4 -4 -4 -4 -4 -4 -4 -4 -4 -4 -4 -5 -4 -5 -5 -5
0 -0 -0 -0 -1 -1 -2 -2 -2 -2 -2 -2 -2 -1 -1 -1 -1 -2 -2 -3 -3 -4 -5 -5 -6 -7 -7 -7 -7 -6 -6 -6 -4 -4 -4 -4 -4 -4 -5 -5 -5 -5 -5 -5
-2 -3 -3 -3 -3 -4 -4 -4 -4 -3 -3 -2 -2 -3 -2 -2 -2 -3 -3 -4 -5 -6 -7 -7 -8 -9 -9 -9 -9 -10 -10 -9 -7 -6 -5 -4 -4 -4 -4 -5 -4 -5 -5 -6

GFSNGP_925_temp_039.txt.gz
Temp
14 14 15 17 17 15 17 16 18 17 16 18 17 16 14 12 12 11 11 11 11 11 10 9 8 8 8 9 9 9 8 7 6 5 5 4 3 3 2 1 0 0 1 0
15 13 13 15 16 15 15 15 16 15 16 16 14 13 12 12 11 11 11 11 11 10 9 8 8 8 8 8 8 7 7 6 5 5 4 3 2 1 0 -0 -0 -1 -0 -1
14 11 13 14 15 16 15 15 17 16 18 13 13 13 13 12 11 11 11 11 10 9 9 8 8 8 8 8 7 7 6 5 4 4 3 2 1 0 0 -1 -1 -0 -2 -2
13 10 15 17 14 15 15 15 15 15 14 14 14 12 12 12 12 11 10 10 9 8 8 7 7 8 7 7 6 6 5 4 3 3 2 1 0 -0 -1 -1 -2 -2 -2 -3
13 13 14 17 14 14 14 17 15 15 14 12 10 12 12 11 11 11 10 9 8 8 7 7 7 7 6 6 5 4 4 3 2 2 0 -0 -0 -1 -1 -2 -2 -2 -3 -3
9 14 14 16 14 14 15 16 15 14 12 10 11 13 15 11 10 9 8 7 7 6 6 7 6 6 5 4 4 3 2 2 1 0 -0 -0 -1 -1 -2 -2 -2 -3 -4 -3
7 12 13 13 14 14 16 16 13 12 11 10 12 13 11 9 8 8 7 7 6 6 6 5 5 5 4 3 3 2 2 1 1 0 -1 -0 -1 -2 -2 -2 -3 -3 -4 -3
7 10 14 12 14 15 15 12 12 11 11 10 9 8 8 8 7 7 6 5 5 5 5 4 4 3 3 2 2 1 0 -0 -0 -0 -1 -0 -1 -2 -2 -3 -3 -4 -4 -4
12 14 13 12 13 12 11 12 12 11 11 11 9 9 8 7 7 6 5 5 5 4 4 3 3 2 1 1 1 -0 -1 -1 -1 -1 -1 -1 -2 -2 -2 -3 -4 -4 -4 -4
12 14 12 12 12 11 12 11 12 10 10 9 10 8 7 6 5 4 4 5 4 3 2 2 2 1 0 0 -1 -1 -1 -1 -1 -1 -2 -3 -3 -3 -3 -3 -3 -4 -4 -4
11 12 12 12 11 11 11 10 10 9 9 9 8 7 6 5 5 4 3 3 3 2 2 1 1 1 0 -1 -1 -2 -2 -1 -1 -2 -2 -3 -3 -3 -3 -4 -4 -4 -4 -4
12 12 13 13 11 10 10 10 9 8 7 7 6 5 4 4 4 3 3 2 2 1 1 0 0 -0 -0 -1 -1 -2 -2 -2 -2 -2 -2 -3 -3 -3 -3 -4 -4 -4 -5 -5
12 11 11 10 9 9 9 8 7 7 6 5 4 3 3 3 3 3 2 2 1 1 1 0 -0 -1 -0 -1 -1 -1 -2 -2 -2 -3 -3 -3 -3 -3 -3 -3 -4 -4 -4 -5
9 9 10 8 7 7 6 5 4 4 3 3 2 2 2 3 2 2 2 1 1 0 0 0 -0 -1 -1 -1 -1 -1 -2 -2 -3 -3 -3 -3 -3 -3 -4 -4 -4 -4 -4 -4
7 7 6 6 6 5 4 3 2 1 1 1 2 3 3 3 2 2 1 1 1 0 0 -0 -1 -0 -0 -1 -1 -2 -2 -3 -3 -3 -3 -3 -4 -4 -4 -4 -4 -4 -4 -5
5 5 5 4 3 3 3 2 1 1 1 2 3 2 2 1 1 1 1 1 -0 0 1 -0 -0 0 -0 -1 -2 -3 -3 -3 -3 -3 -3 -4 -4 -4 -4 -4 -4 -4 -5 -5
5 4 3 3 3 2 2 2 2 2 2 2 2 2 1 0 0 1 1 1 0 -0 0 -0 1 0 -0 -1 -2 -3 -3 -3 -3 -3 -4 -3 -4 -4 -4 -5 -5 -5 -4 -5
4 3 2 2 2 2 2 2 2 2 2 2 1 1 0 -0 -1 -0 0 -0 -0 0 1 1 1 -0 -1 -1 -2 -2 -3 -3 -4 -4 -4 -4 -4 -4 -4 -5 -5 -5 -5 -5
4 4 3 3 3 2 2 2 2 1 1 1 1 1 0 -0 -1 -0 0 -0 -1 -1 2 1 1 -1 -1 -2 -2 -3 -3 -3 -4 -4 -4 -4 -5 -5 -5 -5 -5 -5 -5 -5
3 3 3 2 2 2 2 2 2 1 1 1 -0 -0 1 2 2 1 -0 -2 -1 -0 -0 -1 -1 -2 -3 -3 -3 -4 -4 -4 -4 -4 -4 -5 -5 -5 -5 -5 -5 -5 -5 -5
2 2 1 1 1 1 1 1 1 1 1 1 0 -0 -1 -1 -0 -1 -4 -3 0 0 -0 -1 -2 -2 -3 -3 -4 -4 -4 -4 -4 -4 -4 -4 -4 -5 -5 -5 -5 -5 -5 -5
1 1 1 1 0 0 -0 -0 -0 -1 -1 -1 -2 -2 -3 -3 -3 -2 -2 -3 -1 -1 -1 -2 -2 -3 -4 -4 -5 -4 -4 -4 -4 -4 -4 -4 -4 -4 -4 -4 -5 -5 -5 -5
1 0 -0 -1 -1 -2 -2 -3 -3 -3 -4 -4 -4 -4 -4 -4 -4 -4 -3 -2 -3 -3 -3 -3 -3 -4 -4 -5 -5 -5 -5 -5 -4 -4 -4 -4 -4 -4 -4 -4 -5 -5 -5 -5
-1 -2 -3 -3 -4 -4 -4 -4 -5 -5 -5 -5 -5 -5 -5 -4 -4 -3 -3 -3 -3 -3 -4 -4 -4 -4 -5 -5 -6 -7 -8 -9 -9 -9 -9 -8 -7 -6 -5 -5 -5 -5 -5 -5
-3 -4 -4 -4 -4 -5 -6 -6 -6 -6 -6 -6 -6 -6 -6 -6 -6 -5 -4 -4 -4 -3 -4 -4 -6 -6 -6 -7 -8 -9 -10 -11 -12 -12 -11 -11 -10 -10 -8 -7 -6 -5 -5 -5
-5 -5 -5 -6 -7 -7 -8 -8 -8 -8 -9 -9 -8 -8 -9 -9 -8 -6 -6 -5 -4 -4 -5 -7 -8 -8 -9 -9 -10 -10 -11 -12 -12 -13 -13 -14 -13 -13 -12 -11 -9 -7 -5 -5
-8 -8 -8 -8 -9 -10 -11 -11 -11 -11 -11 -11 -11 -11 -11 -10 -9 -9 -8 -7 -6 -7 -9 -10 -11 -11 -11 -12 -12 -12 -13 -13 -13 -14 -14 -14 -14 -15 -14 -13 -12 -10 -9 -8